MET-3/5
1 21655U 91056A   05362.73748152  .00000051  00000-0  10000-3 0 00006
2 21655 082.5568 021.2191 0014360 106.3118 253.9568 13.17001612690921
MET-2/21
1 22782U 93055A   05363.37933161 -.00000064  00000-0 -71130-4 0  3906
2 22782 082.5485 106.1650 0021211 298.9211 060.9773 13.83598513622562
OKEAN-4
1 23317U 94066A   05363.78551288  .00000336  00000-0  38957-4 0  8247
2 23317 082.5400 075.0063 0021399 209.2411 150.7629 14.82288444604882
NOAA-14
1 23455U 94089A   05363.43122343  .00000009  00000-0  29087-4 0  9335
2 23455 099.0660 054.6907 0009571 166.5096 193.6358 14.13623097567084
SICH-1
1 23657U 95046A   05363.80055033  .00000346  00000-0  41212-4 0  6295
2 23657 082.5284 215.8421 0023336 196.7859 163.2585 14.81291575556918
NOAA-15
1 25338U 98030A   05362.69999042  .00000020  00000-0  27063-4 0 03342
2 25338 098.5146 005.1288 0011061 148.4585 211.7260 14.24555603396444
RESURS
1 25394U 98043A   05362.97438816  .00000008  00000-0  21789-4 0 02654
2 25394 098.5192 066.4192 0001235 346.7148 013.3999 14.24092276388179
FENGYUN1
1 25730U 99025A   05362.39388620  .00000277  00000-0  17466-3 0 06133
2 25730 098.6155 356.4976 0013722 268.1149 091.8460 14.11806421341913
OKEAN-0
1 25860U 99039A   05363.62987116  .00000094  00000-0  21834-4 0  6271
2 25860 097.7428 020.7872 0000795 040.7646 319.3617 14.73325949346789
NOAA-16
1 26536U 00055A   05362.69378496 -.00000098  00000-0 -28666-4 0 06853
2 26536 099.0424 322.5287 0009816 238.9833 121.0378 14.12301573271516
NOAA-17
1 27453U 02032A   05363.45388235  .00000266  00000-0  13522-3 0  7081
2 27453 098.6427 073.8230 0011519 205.0134 155.0516 14.23737394182629
NOAA-18
1 28654U 05018A   05363.43865440 -.00000112  00000-0 -38293-4 0  3001
2 28654 098.7696 305.5213 0014450 345.8856 014.1909 14.10915291 31443
HUBBLE
1 20580U 90037B   05363.42838602  .00000692  00000-0  41419-4 0  5024
2 20580 028.4680 076.4255 0003912 181.9721 178.0864 14.99932120659585
UARS
1 21701U 91063B   05362.36773196  .00008980  00000-0  18184-3 0 06478
2 21701 056.9779 107.5354 0104808 240.1562 118.9166 15.41540766782943
PO-34
1 25520U 98064B   05363.83825386  .00000986  00000-0  39367-4 0  3574
2 25520 028.4562 083.9567 0005509 192.9297 167.1146 15.16566563396311
ISS
1 25544U 98067A   05364.00723160  .00023308  00000-0  16676-3 0   500
2 25544 051.6446 337.2396 0010935 095.6575 011.0998 15.73549098406500
OO-38
1 26063U 00004C   05363.88257186 -.00000012  00000-0  16155-4 0  5108
2 26063 100.1918 259.4435 0036638 223.9676 135.8605 14.35747936310373
NO-45
1 26932U 01043D   05362.72163787 -.00000123  00000-0 -15626-4 0 02059
2 26932 067.0580 086.4320 0005275 291.8004 068.2484 14.29511108221601
